Regional Weather Roundup
Issued by NWS

Home | Current Version | Previous Version | Graphics & Text | Print | Product List | Glossary On
Versions: 1 2 3 4 5 6 7 8 9 10 11 12 13 14 15 16 17 18 19 20 21 22 23 24 25 26 27 28 29 30 31 32 33 34 35 36 37 38 39 40 41 42 43 44 45 46 47 48 49 50
728
ASUS45 KABQ 190101
RWRNM
NEW MEXICO REGIONAL WEATHER ROUNDUP
NATIONAL WEATHER SERVICE ALBUQUERQUE NM
700 PM MDT FRI AUG 18 2017

NOTE: "FAIR" MEANS FEW OR NO CLOUDS BELOW 12,000 FEET AGL WITH NO
       SIGNIFICANT WEATHER OR OBSTRUCTIONS TO VISION.

      THIS PRODUCT IS RELEASED AS TWO VERSIONS.  ONE VERSION NEAR
      THE TOP OF THE HOUR CONTAINING PRELIMINARY DATA FROM ALBUQUERQUE
      AND OTHER STATIONS.  A FINAL VERSION WITH ADDITIONAL DATA IS
      ISSUED ABOUT 10 MINUTES AFTER THE HOUR.

NMZ501-503-504-510>518-190200-
NORTHWEST PLATEAU/NORTHCENTRAL MOUNTAINS

CITY           SKY/WX    TMP DP  RH WIND       PRES   REMARKS
FARMINGTON     FAIR      88  26  10 VRB3      30.13F
LOS ALAMOS     FAIR      80  28  15 SW6       30.29S
SANTA FE       FAIR      86  30  13 W3        30.20S
TAOS           FAIR      78  33  19 VRB3      30.29F
ANGEL FIRE     FAIR      71  39  31 W3        30.39S

$$
NMZ402-403-502-505>509-190200-
WESTCENTRAL MOUNTAINS/SOUTHWEST MOUNTAINS

CITY           SKY/WX    TMP DP  RH WIND       PRES   REMARKS
GALLUP         FAIR      87  26  11 VRB5      30.21F
GRANTS         FAIR      85  26  11 S3        30.22F
SILVER CITY    PTSUNNY   87  39  18 NE8       30.14S

$$
NMZ407-409-411-412-190200-
SOUTHERN DESERTS

CITY           SKY/WX    TMP DP  RH WIND       PRES   REMARKS
DEMING         FAIR      92  42  17 S6        30.05S
LAS CRUCES     FAIR      90  45  21 SE9       30.07S
HOLLOMAN AFB   FAIR      94  46  19 S6        30.05R
ALAMOGORDO     FAIR      91  45  19 S10       30.05S
T OR C         FAIR      93  36  13 CALM      30.06S

$$
NMZ519>523-190200-
CENTRAL VALLEYS/CENTRAL HIGHLANDS

CITY           SKY/WX    TMP DP  RH WIND       PRES   REMARKS
ALBUQUERQUE    FAIR      91  20   7 CALM      30.12F
DOUBLE EAGLE   PTCLDY    88  36  15 SE7       30.17F
CLINES CORNERS FAIR      76  47  35 SE10G21   30.29S
BELEN          NOT AVBL
SOCORRO        NOT AVBL

$$
NMZ524>526-539-540-190200-
SOUTHCENTRAL MOUNTAINS

CITY           SKY/WX    TMP DP  RH WIND       PRES   REMARKS
RUIDOSO        FAIR      72  48  43 SE12      30.33S

$$
NMZ527>531-190200-
NORTHEAST HIGHLANDS/NORTHEAST PLAINS

CITY           SKY/WX    TMP DP  RH WIND       PRES   REMARKS
LAS VEGAS      FAIR      75  49  39 SE10      30.28S
RATON          FAIR      79  48  33 S6        30.21S
CLAYTON        FAIR      78  63  59 SE9       30.16R

$$
NMZ532>537-190200-
EASTCENTRAL PLAINS

CITY           SKY/WX    TMP DP  RH WIND       PRES   REMARKS
SANTA ROSA     FAIR      85  49  27 SE9       30.11S
TUCUMCARI      FAIR      91  56  30 S12G17    30.04S
CANNON AFB     FAIR      81  67  61 SE7       30.12R
CLOVIS AIRPORT FAIR      81  67  62 S6        30.11S

$$
NMZ028-029-538-190200-
SOUTHEAST PLAINS

CITY           SKY/WX    TMP DP  RH WIND       PRES   REMARKS
ROSWELL        FAIR      79  59  50 NW24G33   30.07
ARTESIA        FAIR      91  54  27 SE14      30.05R
CARLSBAD       FAIR      89  58  34 SE10      30.02R
HOBBS          FAIR      84  61  45 S16G23    30.08R


$$




USA.gov is the U.S. government's official web portal to all federal, state and local government web resources and services.